Location: Castle Hill Houses
(40.8186°N, 73.8497°W)
Time: 22:26:36
(UTC+00:00)

Abrixas rocket - Pass Details

Date: 26 January 2020
Orbit: 353 x 361 km, 48.4° (Epoch: 17 February)

Event Time Altitude Azimuth Distance (km) Brightness Sun altitude
Exits shadow 10:17:49 28° 158° (SSE) 716 3.6 -21.4°
Drops below altitude 10° 10:19:30 10° 140° (SE) 1,338 5.4 -21.1°
Sets 10:21:34 0° 134° (SE) 2,182 6.7 -20.7°
